Regional Weather Roundup
Issued by NWS Charleston, WV

Home | Current Version | Previous Version | Text Only | Print | Product List | Glossary On
Versions: 1 2 3 4 5 6 7 8 9 10 11 12 13 14 15 16 17 18 19 20 21 22 23 24 25 26 27 28 29 30 31 32 33 34 35 36 37 38 39 40 41 42 43 44 45 46 47 48 49 50
000
ASUS41 KRLX 220910
RWRRLX
West Virginia Regional Weather Roundup
National Weather Service Charleston WV
400 AM EST SUN JAN 22 2017

Note: "fair" indicates few or no clouds below 12,000 feet with no
significant weather and/or obstructions to visibility.

WVZ003-221000-
Northern Panhandle of West Virginia

CITY           SKY/WX    TMP DP  RH WIND       PRES   REMARKS
WHEELING       CLOUDY    51  48  89 NW8       29.67S
$$

WVZ009-221000-
Northwest West Virginia

CITY           SKY/WX    TMP DP  RH WIND       PRES   REMARKS
PARKERSBURG    CLOUDY    51  50  96 CALM      29.67F
$$

WVZ006-221000-
Western West Virginia

CITY           SKY/WX    TMP DP  RH WIND       PRES   REMARKS
HUNTINGTON     FOG       48  47  96 CALM      29.59F VSB 3/4
$$

WVZ015-221000-
West Central West Virginia

CITY           SKY/WX    TMP DP  RH WIND       PRES   REMARKS
CHARLESTON     CLOUDY    49  47  93 E6        29.62F
$$

WVZ022-031-221000-
North Central West Virginia

CITY           SKY/WX    TMP DP  RH WIND       PRES   REMARKS
CLARKSBURG     CLOUDY    48  46  93 CALM      29.66S
MORGANTOWN     MOCLDY    47  45  93 CALM      29.67S
$$

WVZ025-035-042-045-221000-
Southern West Virginia

CITY           SKY/WX    TMP DP  RH WIND       PRES   REMARKS
BECKLEY        CLEAR     49  46  90 E6        29.64F
LOGAN            N/A     52  48  87 CALM      29.61F
BLUEFIELD      FOG       47  47 100 E6        29.65F VSB 1/4
LEWISBURG      CLOUDY    47  47  99 CALM      29.67F FOG
$$

WVZ047-221000-
Northern Mountains of West Virginia

CITY           SKY/WX    TMP DP  RH WIND       PRES   REMARKS
ELKINS         CLOUDY    45  43  93 CALM      29.68F FOG
$$

WVZ052-221000-
Eastern Panhandle of West Virginia

CITY           SKY/WX    TMP DP  RH WIND       PRES   REMARKS
MARTINSBURG    FOG       45  45 100 NE3       29.69F VSB 1/4
PETERSBURG     CLOUDY    46  45  95 CALM      29.73S FOG
$$




USA.gov is the U.S. government's official web portal to all federal, state and local government web resources and services.